Location: Trebic
(49.2170°N, 15.8830°E)
Time: 16:10:12
(UTC+02:00)

Transit 2A Rocket - Pass Details

Date: 26 July 2019
Orbit: 590 x 913 km, 66.7° (Epoch: 22 August)

Event Time Altitude Azimuth Distance (km) Brightness Sun altitude
Rises 07:18:41 0° 306° (NW) 3,362 7.9 17.1°
Reaches altitude 10° 07:23:11 10° 339° (NNW) 2,341 7.5 17.9°
Maximum altitude 07:24:55 11° 358° (N) 2,203 7.5 18.1°
Drops below altitude 10° 07:26:37 10° 18° (NNE) 2,268 7.9 18.4°
Sets 07:30:45 0° 52° (NE) 3,098 9.2 19.1°
